sat.trackr.live / text

‹ back to catalog

STARLINK-1143

NORAD 45179 · 2020-012B

PAYLOAD ACTIVE UNKNOWN

§ Identity

Operator
Country
US
Launch date
2020-02-17
Launch site
AFETR
Launch vehicle
Mass (kg)
RCS (m²)

Purposes: comms

External: N2YO · Heavens-Above · Gunter

§ Orbital elements

Epoch: 2026-05-25T00:00:02.000160Z

Period
90.92 min
Inclination
53.0366°
Eccentricity
0.0003770
Mean motion
15.83857530 rev/d
Perigee alt
317.0 km
Apogee alt
322.1 km
Semi-major
6,697.7 km
B*
6.5178e-4
RAAN
310.9142°
Arg perigee
311.1222°
Mean anomaly
28.0202°
Rev number
600

§ Raw data

STARLINK-11431 45179U 20012B   26145.00002315  .00149832  00000+0  65178-3 0  99962 45179  53.0366 310.9142 0003770 311.1222  28.0202 15.83857530  6005

JSON: /api/v1/satellites/45179 · /tle

For live sub-satellite position, see the globe view (requires WebGL).

§ Visibility from observer

Set your observer location to see the next 7 days of passes ≥ 10°. The values pass through the URL so the page stays shareable.

No JS? Fill the form by hand. The geolocation button needs JavaScript.